Regional Weather Roundup
Issued by NWS Jackson, KY

Home | Current Version | Previous Version | Graphics & Text | Print | Product List | Glossary On
Versions: 1 2 3 4 5 6 7 8 9 10 11 12 13 14 15 16 17 18 19 20 21 22 23 24 25 26 27 28 29 30 31 32 33 34 35 36 37 38 39 40 41 42 43 44 45 46 47 48 49 50
793
ASUS43 KJKL 231110
RWRJKL

EAST KENTUCKY HOURLY WEATHER ROUNDUP
NATIONAL WEATHER SERVICE JACKSON KY
600 AM EST THU NOV 23 2017

NOTE: "FAIR" INDICATES FEW OR NO CLOUDS BELOW 12,000 FEET WITH
NO SIGNIFICANT WEATHER AND/OR OBSTRUCTIONS TO VISIBILITY.

* THESE REPORTS ARE NOT UNDER NWS QUALITY CONTROL AND MAY NOT
  REPORT WEATHER SUCH AS PRECIPITATION AND FOG.

KYZ079-080-083-085-087-088-110-112-115-119-120-231200
...EASTERN KENTUCKY...

CITY           SKY/WX    TMP DP  RH WIND       PRES   REMARKS
JACKSON        CLOUDY    26  21  81 VRB3      30.14F
LONDON         CLOUDY    26  21  81 CALM      30.16S
SOMERSET*      CLOUDY    23  23 100 CALM      30.17F
MONTICELLO*    CLEAR     18  16  92 N8        30.17F WCI   8
WILLIAMSBURG*  CLOUDY    23  23 100 CALM      30.16S
MIDDLESBORO*   CLEAR     24  24  97 CALM      30.17R
HARLAN APT*    CLOUDY    27  27 100 CALM      30.14S
PIKE CO APT*     N/A     26  25  98 N3        30.15S
BIG SANDY APT* CLOUDY    24  23  95 CALM      30.16F
MOREHEAD APT*  CLOUDY    23  19  86 CALM      30.19F
$$

KYZ035-036-041-042-044-050-067-078-099-231200
...CENTRAL KENTUCKY...

CITY           SKY/WX    TMP DP  RH WIND       PRES   REMARKS
MT STERLING*   CLOUDY    21  19  93 CALM      30.19F
DANVILLE*      CLOUDY    23  21  93 CALM      30.18F
LEXINGTON      CLOUDY    22  16  78 CALM      30.17F
FRANKFORT      CLOUDY    22  17  81 CALM      30.18F
LOUISVILLE     MOCLDY    30  25  81 CALM      30.20S
LEBANON*         N/A     25  23  93 CALM      30.18S
GLASGOW*       PTCLDY    23  22  96 E3        30.18S
BOWLING GREEN  PTCLDY    24  22  91 SE3       30.19S
$$

KYZ091>093-OHZ055-061-077-WVZ005-015-034-035-042-231200
...SOUTHERN OHIO/WEST VIRGINIA...

CITY           SKY/WX    TMP DP  RH WIND       PRES   REMARKS
COVINGTON      CLOUDY    24  24 100 CALM      30.18S
COLUMBUS       MOCLDY    25  22  88 CALM      30.19S
DAYTON         MOCLDY    27  23  85 SW7       30.17F WCI  19
WILMINGTON     CLOUDY    22  21  96 CALM      30.17F
HUNTINGTON     CLOUDY    24  21  88 CALM      30.18F
CHARLESTON     CLOUDY    22  20  92 SE3       30.18S
PINEVILLE*       N/A     21  19  91 MISG      30.19S
BECKLEY        CLEAR     19  17  92 CALM      30.10S
BLUEFIELD      CLEAR     22  18  85 CALM      30.09R
LOGAN CO APT*    N/A     25  23  93 CALM      30.13F
$$

VAZ002-007-008-TNZ017-027-036-066-071-231200
...SOUTHWEST VIRGINIA/EAST TENNESSEE...

CITY           SKY/WX    TMP DP  RH WIND       PRES   REMARKS
WISE*          CLOUDY    28  25  86 N5        30.09S WCI  23
JONESVILLE*      N/A     23  21  93 CALM      30.15S
ABINGDON*      CLOUDY    25  22  87 E5        30.09F WCI  19
BRISTOL        CLOUDY    24  23  96 CALM      30.11F
MORRISTOWN*    MOSUNNY   30  25  80 NE3       30.10S
SEVIERVILLE*   SUNNY     27  27 100 CALM      30.11F
KNOXVILLE      CLEAR     33  29  85 NE6       30.10F WCI  28
LAFOLLETTE*    SUNNY     25  25 100 CALM      30.17S
OAK RIDGE      CLEAR     30  28  92 CALM      30.14S
CROSSVILLE     CLOUDY    25  22  88 N3        30.11R
NASHVILLE      CLEAR     27  23  85 CALM      30.18R
$$

...KEY TO REMARKS...
VSB - VISIBILITY IN MILES
WCI - WIND CHILL INDEX
HX  - HEAT INDEX

$$




USA.gov is the U.S. government's official web portal to all federal, state and local government web resources and services.